Regional Weather Roundup
Issued by NWS

Home | Current Version | Previous Version | Graphics & Text | Print | Product List | Glossary On
Versions: 1 2 3 4 5 6 7 8 9 10 11 12 13 14 15 16 17 18 19 20 21 22 23 24 25 26 27 28 29 30 31 32 33 34 35 36 37 38 39 40 41 42 43 44 45 46 47 48 49 50
529
ASUS43 KFSD 231310
RWRSD

WEATHER ROUNDUP FOR SOUTH DAKOTA
NATIONAL WEATHER SERVICE SIOUX FALLS SD
700 AM CST THU NOV 23 2017

NOTE: "FAIR" INDICATES FEW OR NO CLOUDS BELOW 12,000 FEET WITH NO
SIGNIFICANT WEATHER AND/OR OBSTRUCTIONS TO VISIBILITY.


SDZ001>005-009-010-012>017-231400-
NORTHWEST AND NORTH CENTRAL SOUTH DAKOTA

CITY           SKY/WX    TMP DP  RH WIND       PRES   REMARKS
FAITH            N/A     47  39  74 W9        29.90F
MOBRIDGE       CLOUDY    34  31  88 SE7       29.86F WCI  28
$$

SDZ012>016-024>037-041>051-057-063-072>074-231400-
SOUTHWEST AND SOUTH CENTRAL SOUTH DAKOTA

CITY           SKY/WX    TMP DP  RH WIND       PRES   REMARKS
RAPID CTY ARPT CLOUDY    43  35  73 SW3       29.96F
PIERRE         CLOUDY    30  30 100 CALM      29.92F
CUSTER         CLOUDY    50  33  52 W10       30.07S
ELLSWORTH AFB  CLOUDY    41  36  82 W8        29.95F
PHILIP         CLOUDY    42  38  85 W9        29.95F
PINE RIDGE     CLOUDY    40  36  86 SW7       30.05S
SPEARFISH      FAIR      57  36  44 W9        29.99S
WINNER         FAIR      44  37  76 SW9       29.97F
$$

SDZ004>011-016>023-039-040-231400-
NORTHEAST SOUTH DAKOTA

CITY           SKY/WX    TMP DP  RH WIND       PRES   REMARKS
ABERDEEN       CLOUDY    17  16  95 S5        29.94F WCI  10
WATERTOWN      CLOUDY    21  18  88 CALM      29.95S
BROOKINGS      CLOUDY    24  21  88 CALM      29.96F
SISSETON         N/A     22  19  89 SW7       29.93F WCI  13
$$

SDZ017-020-022-023-036>040-048>070-231400-
SOUTHEAST SOUTH DAKOTA

CITY           SKY/WX    TMP DP  RH WIND       PRES   REMARKS
SIOUX FALLS    CLOUDY    28  24  85 N5        29.98F WCI  23
HURON          CLOUDY    24  22  91 S6        29.97F WCI  17
CHAMBERLAIN    CLEAR     35  35 100 CALM      29.96F
MITCHELL       CLOUDY    28  26  92 CALM      30.00S
YANKTON        CLOUDY    33  29  85 N3        30.00F
$$

ABBREVIATIONS USED IN REMARKS
   TC - TEMPERATURE IN CELSIUS
  WCI - WIND CHILL INDEX
   HX - HEAT INDEX
  VSB - VISIBILITY





USA.gov is the U.S. government's official web portal to all federal, state and local government web resources and services.